Weather History for Monroe, LA

Change the Weather History Date:

Wednesday, December 26, 2012

  Actual Average Record
Temperature  
Mean Temperature 35 °F 46 °F  
Max Temperature 40 °F 57 °F 77 °F (2008)
Min Temperature 29 °F 36 °F 12 °F (1983)
Degree Days  
Heating Degree Days 30 19  
Month to date heating degree days 248 436  
Since 1 July heating degree days 678 808  
Cooling Degree Days 0 0  
Month to date cooling degree days 15 0  
Year to date cooling degree days 2784 2508  
Moisture  
Dew Point 30 °F    
Average Humidity 75    
Maximum Humidity 85    
Minimum Humidity 64    
Precipitation  
Precipitation T in 0.17 in 3.15 in (1982)
Month to date precipitation 4.33 4.49  
Year to date precipitation 56.18 53.22  
Snow  
Snow 0.00 in - - ()
Month to date snowfall 0.0  
Since 1 July snowfall 0.0  
Snow Depth 0.00 in    
Sea Level Pressure  
Sea Level Pressure 30.08 in    
Wind  
Wind Speed 9 mph (NW)    
Max Wind Speed 24 mph    
Max Gust Speed 30 mph    
Visibility 10 miles    
Events Rain    
T = Trace of Precipitation, MM = Missing Value Source: NWS Daily Summary

Daily Weather History Graph

Daily Weather History Graph

Search for Another Location

Airport:

Trip Planner

Search our weather history database for the weather conditions in past years. The results will help you decide how hot, cold, wet, or windy it might be!

Date:

Astronomy

Dec. 26, 2012 Rise Set
Actual Time 7:08 AM CST 5:09 PM CST
Civil Twilight 6:41 AM CST 5:37 PM CST
Nautical Twilight 6:10 AM CST 6:07 PM CST
Astronomical Twilight 5:40 AM CST 6:37 PM CST
Moon 4:02 PM CST (12/26) 5:33 AM CST (12/26)
Length of Visible Light 10h 55m
Length of Day
10h 01m
Waxing Gibbous, 97% of the Moon is Illuminated
Dec 26
Waxing Gibbous
Dec 28
Full
Jan 4
Last Quarter
Jan 11
New
Jan 18
First Quarter

Hourly Weather History & Observations

Time (CST) Temp. Windchill Dew Point Humidity Pressure Visibility Wind Dir Wind Speed Gust Speed Precip Events Conditions
12:53 AM 37.0 °F 27.0 °F 30.0 °F 76% 29.88 in 10.0 mi NW 18.4 mph 24.2 mph N/A   Overcast
1:29 AM 37.4 °F 28.2 °F 30.2 °F 75% 29.90 in 10.0 mi NW 16.1 mph 23.0 mph N/A   Overcast
1:49 AM 37.4 °F 29.3 °F 30.2 °F 75% 29.91 in 10.0 mi NW 12.7 mph 24.2 mph N/A   Mostly Cloudy
1:53 AM 37.0 °F 29.3 °F 30.9 °F 79% 29.91 in 10.0 mi NW 11.5 mph - N/A   Mostly Cloudy
2:17 AM 37.4 °F 28.5 °F 30.2 °F 75% 29.91 in 10.0 mi NW 15.0 mph 20.7 mph N/A   Scattered Clouds
2:53 AM 37.4 °F 29.8 °F 30.2 °F 75% 29.93 in 10.0 mi NW 11.5 mph - N/A   Mostly Cloudy
3:08 AM 37.4 °F 28.9 °F 32.0 °F 81% 29.94 in 10.0 mi WNW 13.8 mph - N/A   Overcast
3:53 AM 37.0 °F 28.9 °F 32.0 °F 82% 29.96 in 10.0 mi WNW 12.7 mph - 0.00 in Rain Light Rain
4:11 AM 37.4 °F 28.9 °F 32.0 °F 81% 29.97 in 10.0 mi NW 13.8 mph - N/A   Overcast
4:53 AM 37.0 °F 28.5 °F 32.0 °F 82% 29.98 in 10.0 mi NW 13.8 mph - N/A   Overcast
5:27 AM 37.4 °F 30.3 °F 32.0 °F 81% 30.00 in 10.0 mi NW 10.4 mph - N/A   Overcast
5:38 AM 37.4 °F 29.8 °F 32.0 °F 81% 30.01 in 10.0 mi WNW 11.5 mph - N/A   Overcast
5:53 AM 37.4 °F 28.9 °F 32.0 °F 81% 30.02 in 10.0 mi WNW 13.8 mph - N/A   Overcast
6:53 AM 36.0 °F 28.0 °F 30.9 °F 82% 30.06 in 9.0 mi WNW 11.5 mph 21.9 mph N/A   Overcast
7:53 AM 35.1 °F 27.4 °F 30.0 °F 82% 30.09 in 7.0 mi NW 10.4 mph - N/A   Overcast
8:53 AM 35.1 °F 28.6 °F 30.0 °F 82% 30.13 in 8.0 mi NW 8.1 mph - N/A   Overcast
9:25 AM 35.6 °F 28.0 °F 30.2 °F 81% 30.14 in 8.0 mi NW 10.4 mph - N/A   Overcast
9:53 AM 36.0 °F 28.5 °F 30.0 °F 79% 30.16 in 9.0 mi WNW 10.4 mph - N/A   Overcast
10:53 AM 37.0 °F 29.8 °F 28.9 °F 73% 30.17 in 10.0 mi WNW 10.4 mph - N/A   Overcast
11:53 AM 37.0 °F 28.5 °F 28.9 °F 73% 30.16 in 10.0 mi West 13.8 mph - N/A   Overcast
12:53 PM 37.0 °F 28.9 °F 28.9 °F 73% 30.16 in 10.0 mi West 12.7 mph - N/A   Overcast
1:53 PM 37.0 °F 28.9 °F 28.9 °F 73% 30.16 in 10.0 mi West 12.7 mph - N/A   Overcast
2:53 PM 39.0 °F 31.8 °F 28.0 °F 65% 30.16 in 10.0 mi WNW 11.5 mph - N/A   Overcast
3:16 PM 39.2 °F 32.0 °F 28.4 °F 65% 30.15 in 10.0 mi WNW 11.5 mph - N/A   Scattered Clouds
3:53 PM 39.9 °F 34.5 °F 28.0 °F 63% 30.16 in 10.0 mi NW 8.1 mph - N/A   Clear
4:53 PM 37.9 °F 34.4 °F 28.0 °F 68% 30.16 in 10.0 mi WNW 4.6 mph - N/A   Clear
5:53 PM 36.0 °F - 28.0 °F 73% 30.18 in 10.0 mi Calm Calm - N/A   Clear
6:53 PM 34.0 °F - 28.9 °F 82% 30.20 in 10.0 mi Calm Calm - N/A   Clear
7:53 PM 34.0 °F 28.8 °F 28.0 °F 79% 30.22 in 10.0 mi North 5.8 mph - N/A   Clear
8:53 PM 32.0 °F 24.2 °F 27.0 °F 82% 30.21 in 10.0 mi NE 9.2 mph - N/A   Clear
9:53 PM 32.0 °F 24.8 °F 27.0 °F 82% 30.22 in 10.0 mi NE 8.1 mph - N/A   Clear
10:53 PM 30.9 °F 26.2 °F 27.0 °F 85% 30.22 in 10.0 mi ENE 4.6 mph - N/A   Clear
11:53 PM 30.0 °F - 26.1 °F 85% 30.21 in 10.0 mi Calm Calm - N/A   Clear